DW4277 Weather Reports


Display with metric or nautical units.
time (UTC)temp
F
wind
direction
speed
MPH
gust
MPH
rain 1hr
in
rain 24hr
in
rain mn
in
humidity
%
barometer
mb
20260902043053 61 348 0.0 0.0 0.00 0.01 0.00 78 1019.6
20260902041548 61 348 0.0 0.0 0.00 0.01 0.00 76 1019.6
20260902040047 62 348 0.0 0.0 0.00 0.01 0.00 76 1019.5
20260902034547 62 348 0.0 0.0 0.00 0.01 0.00 75 1019.6
20260902033046 62 348 0.0 0.0 0.00 0.01 0.00 75 1019.6
20260902031546 62 348 0.0 0.0 0.00 0.01 0.00 76 1019.5
20260902030045 62 348 0.0 0.0 0.00 0.01 0.00 76 1019.5
20260902024545 62 348 0.0 0.0 0.00 0.01 0.00 74 1019.4
20260902023046 61 348 0.0 0.0 0.00 0.01 0.00 75 1019.4
20260902021546 62 348 0.0 0.0 0.00 0.01 0.00 76 1019.5
20260902020057 62 348 0.0 0.0 0.00 0.01 0.00 75 1019.4
20260902014549 62 348 0.0 0.0 0.00 0.01 0.00 75 1019.5
20260902013039 62 348 0.0 0.0 0.00 0.01 0.00 75 1019.5
20260902011537 62 348 0.0 0.0 0.00 0.01 0.00 74 1019.5
20260902010035 63 348 0.0 0.0 0.00 0.01 0.00 72 1019.6
20260902004532 63 348 0.0 0.0 0.00 0.01 0.00 72 1019.6
20260902003033 64 348 0.0 0.0 0.00 0.01 0.00 69 1019.8
20260902001530 64 348 0.0 0.0 0.00 0.01 0.00 68 1019.7
20260902000039 64 348 0.0 0.0 0.00 0.01 0.00 68 1019.7
20260901234546 65 348 0.0 0.0 0.00 0.01 0.00 67 1019.7
20260901233025 65 348 0.0 0.0 0.00 0.01 0.00 66 1019.7
20260901231527 65 348 0.0 0.0 0.00 0.01 0.00 66 1019.7
20260901230023 65 348 0.0 11.0 0.00 0.01 0.00 65 1019.8
20260901224521 66 348 1.0 11.0 0.00 0.11 0.00 65 1019.8
20260901223019 66 348 0.0 9.0 0.00 0.11 0.00 64 1019.6
20260901221540 66 348 0.0 0.0 0.00 0.11 0.00 64 1019.6
20260901220015 67 348 0.0 0.0 0.00 0.11 0.00 63 1019.6
20260901214515 67 348 0.0 0.0 0.00 0.21 0.11 61 1019.5
20260901213013 68 348 0.0 0.0 0.00 0.21 0.11 61 1019.5
20260901211519 68 348 0.0 0.0 0.00 0.21 0.11 59 1019.4
20260901210112 69 348 0.0 0.0 0.00 0.21 0.11 58 1019.4
20260901204515 69 348 0.0 0.0 0.00 0.23 0.11 57 1019.2
20260901203016 70 348 0.0 0.0 0.00 0.23 0.11 55 1019.2
20260901201529 70 348 0.0 0.0 0.00 0.23 0.11 54 1019.1
20260901200010 71 348 0.0 0.0 0.00 0.23 0.11 53 1019.2
20260901194510 72 348 0.0 0.0 0.00 0.23 0.11 51 1019.0
20260901193009 73 348 0.0 0.0 0.00 0.23 0.11 47 1018.9
20260901191512 74 348 0.0 0.0 0.00 0.23 0.11 46 1018.9
20260901190011 74 348 0.0 0.0 0.00 0.23 0.11 46 1018.8
20260901184508 75 348 0.0 0.0 0.00 0.23 0.11 46 1018.7
20260901183007 75 348 0.0 0.0 0.00 0.23 0.11 44 1018.5
20260901181509 76 348 0.0 0.0 0.00 0.23 0.11 44 1018.4
20260901180007 76 348 0.0 0.0 0.00 0.23 0.11 42 1018.2
20260901174509 77 348 0.0 13.0 0.00 0.23 0.11 41 1017.9
20260901173005 78 348 6.0 15.0 0.00 0.23 0.11 41 1017.7
20260901171505 79 348 3.0 21.0 0.00 0.23 0.11 39 1017.7
20260901170009 79 333 10.0 18.0 0.00 0.23 0.11 39 1017.7
20260901164504 80 334 11.0 24.0 0.00 0.23 0.11 39 1017.6
20260901163003 80 317 16.0 30.0 0.00 0.23 0.11 40 1017.5
20260901161502 80 333 20.0 33.0 0.00 0.23 0.11 39 1017.6
20260901160004 80 317 12.0 32.0 0.00 0.23 0.11 39 1017.6
20260901154501 81 346 18.0 33.0 0.00 0.23 0.11 39 1017.7
20260901153002 81 310 21.0 37.0 0.00 0.23 0.11 38 1017.7
20260901151600 81 348 12.0 26.0 0.00 0.23 0.11 39 1017.6
20260901150104 81 341 16.0 34.0 0.00 0.23 0.11 40 1017.7
20260901144559 82 321 5.0 28.0 0.00 0.23 0.11 40 1017.7
20260901143158 82 327 18.0 34.0 0.00 0.23 0.11 38 1017.7
20260901141559 81 344 5.0 33.0 0.00 0.23 0.11 40 1017.8
20260901140055 81 323 17.0 36.0 0.00 0.23 0.11 40 1017.9
20260901134611 81 13 15.0 26.0 0.00 0.23 0.11 40 1017.9
20260901133051 81 336 18.0 31.0 0.00 0.23 0.11 41 1018.0
20260901131550 80 351 12.0 30.0 0.00 0.23 0.11 43 1018.2
20260901130057 80 354 17.0 32.0 0.00 0.23 0.11 42 1018.4
20260901124558 80 312 15.0 33.0 0.00 0.23 0.11 44 1018.4
20260901123048 80 316 20.0 38.0 0.00 0.23 0.11 43 1018.4
20260901121645 79 290 14.0 34.0 0.00 0.23 0.11 46 1018.6
20260901120055 77 330 23.0 35.0 0.00 0.23 0.11 48 1018.7
20260901114542 77 349 18.0 34.0 0.00 0.23 0.11 48 1018.8
20260901113104 77 278 13.0 28.0 0.00 0.23 0.11 51 1018.9
20260901111536 76 326 12.0 34.0 0.00 0.23 0.11 51 1018.8
20260901110040 76 344 7.0 32.0 0.00 0.23 0.11 51 1018.9
20260901104534 75 312 13.0 34.0 0.00 0.23 0.11 52 1019.0
20260901103033 75 329 18.0 32.0 0.00 0.23 0.11 53 1019.1
20260901101544 75 338 16.0 31.0 0.00 0.23 0.11 54 1019.2
20260901100027 74 350 15.0 26.0 0.00 0.23 0.11 55 1019.2
20260901094527 74 315 15.0 31.0 0.00 0.23 0.11 55 1019.2
20260901093025 74 340 15.0 36.0 0.00 0.23 0.11 54 1019.2
20260901091522 74 332 8.0 38.0 0.00 0.23 0.11 56 1019.2
20260901090020 74 327 16.0 28.0 0.00 0.23 0.11 57 1019.4
20260901084528 73 31 15.0 31.0 0.00 0.23 0.11 58 1019.4
20260901083014 73 354 14.0 36.0 0.00 0.23 0.11 58 1019.2
20260901081510 72 331 20.0 40.0 0.00 0.23 0.11 59 1019.3
20260901080007 72 334 20.0 36.0 0.00 0.23 0.11 60 1019.2
20260901074504 71 333 16.0 30.0 0.00 0.23 0.11 62 1019.3
20260901073104 71 4 15.0 31.0 0.00 0.23 0.11 64 1019.2
20260901071558 70 321 10.0 25.0 0.00 0.23 0.11 66 1019.0
20260901070100 70 341 10.0 25.0 0.01 0.23 0.11 66 1019.0
20260901064547 69 325 16.0 26.0 0.01 0.23 0.11 67 1018.9
20260901063047 68 14 19.0 30.0 0.01 0.23 0.11 68 1018.9
20260901061539 67 352 12.0 21.0 0.01 0.23 0.11 70 1018.8
20260901060035 67 333 0.0 19.0 0.00 0.22 0.10 72 1018.7
20260901054530 66 333 5.0 18.0 0.00 0.22 0.10 72 1018.6
20260901053031 66 333 10.0 17.0 0.00 0.22 0.10 73 1018.5
20260901051521 65 337 0.0 9.0 0.00 0.22 0.10 75 1018.4
20260901050017 64 338 1.0 21.0 0.00 0.22 0.10 76 1018.3
20260901044515 64 330 0.0 0.0 0.00 0.22 0.10 78 1018.1